Regional Weather Roundup
Issued by NWS

Home | Current Version | Previous Version | Graphics & Text | Print | Product List | Glossary On
Versions: 1 2 3 4 5 6 7 8 9 10 11 12 13 14 15 16 17 18 19 20 21 22 23 24 25 26 27 28 29 30 31 32 33 34 35 36 37 38 39 40 41 42 43 44 45 46 47 48 49 50
000
ASUS43 KMPX 301710
RWRMN
WEATHER ROUNDUP FOR MINNESOTA
NATIONAL WEATHER SERVICE TWIN CITIES/CHANHASSEN MN
1200 PM CDT SAT MAY 30 2015


NOTE: "FAIR" INDICATES FEW OR NO CLOUDS BELOW 12,000 FEET WITH NO
SIGNIFICANT WEATHER AND/OR OBSTRUCTIONS TO VISIBILITY. N/A MEANS
CURRENT SKY AND/OR WEATHER CONDITIONS ARE NOT AVAILABLE.

MNZ060>063-068>070-301800-
   Twin Cities Metro

CITY           SKY/WX    TMP DP  RH WIND       PRES   REMARKS
TWIN CITIES    PTSUNNY   58  42  55 N13       30.24R
ST PAUL        PTSUNNY   57  43  59 N10       30.24R
CRYSTAL        MOSUNNY   58  40  51 N13       30.24R
LAKEVILLE      PTSUNNY   54  45  71 NE15      30.22S
EDEN PRAIRIE   MOSUNNY   57  40  52 N10G20    30.22R
SOUTH ST PAUL  PTSUNNY   55  42  60 N10G16    30.23R
LAKE ELMO      CLOUDY    54  43  66 N12       30.25R
$$
MNZ001>005-007-008-013>017-022>024-027-028-301800-
   Northwest Minnesota

CITY           SKY/WX    TMP DP  RH WIND       PRES   REMARKS
BEMIDJI        SUNNY     46  30  53 N12       30.34F
HALLOCK        SUNNY     46  27  46 NE6       30.42S
ROSEAU         SUNNY     46  28  49 N8        30.39S
WARROAD        SUNNY     45  32  61 NE8       30.40S
THIEF RVR FALL SUNNY     45  30  57 NE7       30.39F
CROOKSTON      SUNNY     46  30  53 NE8G20    30.40F
FOSSTON        SUNNY     46  37  71 N9G17     30.37S
DETROIT LAKES  SUNNY     50  34  53 N3        30.34S
MOORHEAD       SUNNY     46  36  66 N13       30.38F
PARK RAPIDS    SUNNY     49  29  46 VRB6      30.32S
MAHNOMEN       FAIR      46  34  64 N10       30.36S
$$
MNZ006-009>011-018-025>026-301800-
   North Central Minnesota

CITY           SKY/WX    TMP DP  RH WIND       PRES   REMARKS
BAUDETTE       SUNNY     46  29  51 N12       30.37F
FLAG ISLAND    SUNNY     43  27  52 N6        30.38F
INTL FALLS     SUNNY     44  27  51 VRB6G17   30.36S
WASKISH        SUNNY     48  32  53 NE8       30.37S
BIG FORK       SUNNY     48  28  46 N9        30.34S
LONGVILLE      SUNNY     48  34  57 N8        30.32S
GRAND RAPIDS   SUNNY     46  28  49 N10G21    30.32S
CRANE LAKE     SUNNY     43  27  52 MISG      30.37S
ORR            SUNNY     45  27  49 NW1       30.32S
COOK           SUNNY     46  30  53 NW7       30.34S
WALKER         FAIR      46  29  51 N7        30.34S
$$
MNZ012-019>021-037-301800-
   Northeast Minnesota

CITY           SKY/WX    TMP DP  RH WIND       PRES   REMARKS
DULUTH         MOSUNNY   51  33  50 N12       30.27S
HIBBING        SUNNY     49  27  42 N13       30.31S
EVELETH        SUNNY     46  32  57 NE10G16   30.32R
DULUTH HARBOR  SUNNY     52  39  62 E7        30.31R
TWO HARBORS    SUNNY     55  36  47 E5        30.27S
SILVER BAY     SUNNY     55  28  35 NW7       30.27S
GRAND MARAIS     N/A     49  28  44 VRB5      30.29R
G MARAIS ARPRT SUNNY     46  25  42 N10G18    30.28R
$$
MNZ029>031-032-039>041-046>048-054>057-064-301800-
   West Central Minnesota

CITY           SKY/WX    TMP DP  RH WIND       PRES   REMARKS
FERGUS FALLS   SUNNY     48  36  61 N10G16    30.34F
WHEATON        MOSUNNY   46  36  66 NW12G23   30.36S
MORRIS         MOSUNNY   52  39  62 N12       30.31S
ALEXANDRIA     SUNNY     50  34  54 N7        30.31S
ELBOW LAKE     FAIR      49  35  59 N12       30.33R
WADENA         SUNNY     48  36  61 N7        30.31S
GLENWOOD       SUNNY     52  37  58 N10       30.30S
APPLETON       MOSUNNY   55  37  50 N12G20    30.31F
BENSON         SUNNY     54  36  50 N10       30.31S
ORTONVILLE     PTSUNNY   48  37  66 N14       30.33S
MADISON        MOSUNNY   54  39  58 N14G21    30.31F
WILLMAR        FAIR      54  41  62 N13G18    30.30S
$$
MNZ033>034-036-042>043-049>051-058-059-301800-
   Central Minnesota

CITY           SKY/WX    TMP DP  RH WIND       PRES   REMARKS
ST CLOUD       SUNNY     53  37  54 N12       30.27S
SAUK CENTRE    FAIR      51  34  53 N13G21    30.30S
PAYNESVILLE    SUNNY     49  37  62 N8G21     30.29S
AITKIN         SUNNY     54  34  47 NE10      30.28S
PINE RIVER     SUNNY     48  34  57 N6        30.34S
BRAINERD       SUNNY     50  33  52 MISG      30.31R
STAPLES        SUNNY     48  30  49 N7G16     30.31S
LONG PRAIRIE   FAIR      50  34  53 NW12      30.30S
LITTLE FALLS   SUNNY     50  32  50 N5        30.29S
LITCHFIELD     SUNNY     55  43  62 N6G17     30.28R
BUFFALO        SUNNY     55  38  52 N9        30.27R
MAPLE LAKE     SUNNY     55  40  57 N10G20    30.27S
$$
MNZ037-044-045-052-053-301800-
   East Central Minnesota

CITY           SKY/WX    TMP DP  RH WIND       PRES   REMARKS
PRINCETON      SUNNY     55  37  50 N10G16    30.27S
MORA           SUNNY     54  34  47 N6        30.28S
CAMBRIDGE      SUNNY     55  41  58 NE7       30.25R
RUSH CITY      MOSUNNY   55  40  57 N13G21    30.26S
MOOSE LAKE     SUNNY     52  32  46 NE9       30.26S
HINCKLEY       FAIR      54  37  54 N10       30.27S
CLOQUET        SUNNY     52  27  37 NE12G18   30.28S
MCGREGOR       SUNNY     52  32  46 N12G22    30.30S
$$
MNZ071>073-080-081-089-090-097-098-301800-
   Southwest Minnesota

CITY           SKY/WX    TMP DP  RH WIND       PRES   REMARKS
MONTEVIDEO     SUNNY     54  41  62 N13       30.30F
GRANITE FALLS  MOSUNNY   53  40  61 N12G18    30.31S
CANBY          MOSUNNY   52  40  64 N12G20    30.32F
MARSHALL       PTSUNNY   52  37  58 N15G23    30.29R
REDWOOD FALLS  MOSUNNY   54  41  61 N14G20    30.28R
OLIVIA         MOSUNNY   52  37  58 N12       30.27S
PIPESTONE      PTSUNNY   52  39  62 NE13G20   30.28R
WINDOM         MOSUNNY   54  43  66 N16G23    30.26R
WORTHINGTON    MOSUNNY   54  39  58 N15G22    30.26R
JACKSON        PTSUNNY   52  45  76 N14G21    30.25R
TRACY          SUNNY     54  42  66 N16G24    30.28S
SLAYTON        MOSUNNY   51  40  66 N14G23    30.28R
$$
MNZ065>067-074>077-082>085-091>093-301800-
   South Central Minnesota

CITY           SKY/WX    TMP DP  RH WIND       PRES   REMARKS
MANKATO        MOSUNNY   55  39  54 N13G22    30.23R
NEW ULM        MOSUNNY   54  41  62 N8G18     30.25S
ST JAMES       PTSUNNY   57  45  62 N16G22    30.25S
FAIRMONT       PTSUNNY   55  41  58 N17G24    30.22S
GLENCOE        SUNNY     55  43  63 N14G22    30.25R
FARIBAULT      CLOUDY    55  46  71 N12G18    30.22R
OWATONNA       PTSUNNY   55  45  67 NE14      30.21R
WASECA         PTSUNNY   55  46  71 N14       30.22S
ALBERT LEA     CLOUDY    55  48  76 N15       30.19S
$$
MNZ078>079-086>088-094>096-301800-
   Southeast Minnesota

CITY           SKY/WX    TMP DP  RH WIND       PRES   REMARKS
ROCHESTER      CLOUDY    54  48  80 N12       30.20R
RED WING       CLOUDY    55  45  67 NE9       30.20S
STANTON        CLOUDY    56  46  69 N15       30.20S
DODGE CENTER   CLOUDY    54  46  76 N14       30.20R
WINONA         CLOUDY    55  48  76 N5        30.18R
AUSTIN         CLOUDY    54  46  76 N13G20    30.18R
PRESTON        CLOUDY    53  47  81 NE14G21   30.17R
$$
ABBREVIATIONS USED IN REMARKS
   TC - TEMPERATURES IN CELSIUS
  WCI - WIND CHILL INDEX
   HX - HEAT INDEX
  VSB - VISIBILITY
$$


USA.gov is the U.S. government's official web portal to all federal, state and local government web resources and services.